RADUGA 15 [-]

Last updated on Jan. 18, 2020, 4:38 a.m. UTC

1 15057U 84063A   20017.25490722 -.00000354  00000-0  00000+0 0  9992
2 15057  12.9866 331.6568 0002494  69.8058 295.9783  1.00266059117594
UTC
Height (km)
Latitude
Longitude
Inclination
Orbital Period
UTC large
Height (km)
Speed (km/s)
/
Latitude / Longitude
Inclination (degrees)
Orbital Period (minutes)
Azimuth
Elevation
Range (km)
Doppler Factor
iOS Compass Heading
iOS Angle

Next 30 passes for location: Hong Kong

Rise time Rise Azimuth (degrees) Set time Set Azimuth (degrees) Duration Max altitude (degrees)

No matching passes for this satellites